Location: Gold Fund Mine
(38.3819°N, 119.0996°W)
Time: 17:57:06
(UTC+00:00)

IRIDIUM 103 - Pass Details

Date: 18 September 2020
Orbit: 776 x 779 km, 86.4° (Epoch: 19 October)

Event Time Altitude Azimuth Distance (km) Brightness Sun altitude
Rises 12:20:44 0° 354° (N) 3,266 7.7 -16.4°
Reaches altitude 10° 12:23:06 10° 351° (N) 2,334 6.9 -15.9°
Maximum altitude 12:28:16 64° 271° (W) 856 4.3 -14.9°
Drops below altitude 10° 12:33:23 10° 190° (S) 2,317 6.6 -14.0°
Sets 12:35:44 0° 188° (S) 3,240 7.3 -13.5°
